TimeMST,TemperatureF,Dew PointF,Humidity,Sea Level PressureIn,VisibilityMPH,Wind Direction,Wind SpeedMPH,Gust SpeedMPH,PrecipitationIn,Events,Conditions,WindDirDegrees,DateUTC
12:53 AM,27.0,-2.0,29,30.00,10.0,West,12.7,23.0,N/A,,Clear,260,2012-12-30 07:53:00
1:53 AM,24.1,-0.9,34,30.01,10.0,WSW,5.8,-,N/A,,Clear,240,2012-12-30 08:53:00
2:53 AM,21.9,1.0,40,30.01,10.0,WNW,5.8,-,N/A,,Clear,290,2012-12-30 09:53:00
3:53 AM,12.0,1.9,64,30.06,10.0,NW,10.4,-,N/A,,Clear,310,2012-12-30 10:53:00
4:53 AM,16.0,3.0,57,30.09,10.0,NW,10.4,-,N/A,,Clear,310,2012-12-30 11:53:00
5:53 AM,9.0,-0.0,67,30.14,10.0,WNW,5.8,-,N/A,,Clear,290,2012-12-30 12:53:00
6:53 AM,8.1,-2.0,64,30.16,10.0,North,9.2,-,N/A,,Clear,360,2012-12-30 13:53:00
7:53 AM,14.0,1.9,59,30.14,10.0,NW,8.1,-,N/A,,Clear,320,2012-12-30 14:53:00
8:53 AM,14.0,1.9,59,30.16,10.0,WNW,6.9,-,N/A,,Clear,300,2012-12-30 15:53:00
9:53 AM,19.0,7.0,59,30.18,10.0,West,8.1,-,N/A,,Clear,270,2012-12-30 16:53:00
10:53 AM,24.1,9.0,53,30.15,10.0,Calm,Calm,-,N/A,,Clear,0,2012-12-30 17:53:00
11:53 AM,28.9,12.0,49,30.05,10.0,NW,8.1,-,0.03,,Clear,310,2012-12-30 18:53:00
12:53 PM,30.9,12.0,46,30.04,10.0,NW,16.1,-,0.01,,Clear,310,2012-12-30 19:53:00
1:53 PM,30.0,12.0,47,30.05,10.0,NNW,12.7,-,N/A,,Clear,330,2012-12-30 20:53:00
2:53 PM,30.0,10.9,45,30.09,10.0,NW,9.2,-,N/A,,Clear,320,2012-12-30 21:53:00
3:53 PM,27.0,9.0,47,30.15,10.0,Calm,Calm,-,N/A,,Clear,0,2012-12-30 22:53:00
4:53 PM,17.1,6.1,62,30.17,10.0,NNW,8.1,-,N/A,,Clear,330,2012-12-30 23:53:00
5:53 PM,10.9,3.0,70,30.24,10.0,Calm,Calm,-,N/A,,Clear,0,2012-12-31 00:53:00
6:53 PM,10.0,3.0,73,30.26,10.0,Calm,Calm,-,N/A,,Clear,0,2012-12-31 01:53:00
7:53 PM,5.0,-0.0,80,30.24,10.0,WNW,3.5,-,N/A,,Clear,300,2012-12-31 02:53:00
8:53 PM,7.0,1.9,80,30.24,10.0,Calm,Calm,-,N/A,,Clear,0,2012-12-31 03:53:00
9:53 PM,5.0,-0.0,80,30.24,10.0,Calm,Calm,-,N/A,,Clear,0,2012-12-31 04:53:00
10:53 PM,3.0,-2.0,80,30.23,10.0,Calm,Calm,-,N/A,,Scattered Clouds,0,2012-12-31 05:53:00
11:53 PM,5.0,-0.0,80,30.20,10.0,Calm,Calm,-,N/A,,Overcast,0,2012-12-31 06:53:00